Simultaneous Nadir Overpasses (SNOs) Predictions

Prediction of SNOs between GOES-15 and LANDSAT-8 Satellite Orbit:

Table of predicted SNOs for the next 14.0 days since TLE Epoch: 3/6/2021
Index Date Time (GOES-15) GOES-15 Lat,Lon LANDSAT-8 Lat,Lon Distance(km) Time Diff (sec)
1 03/07/2021 18:45:18 0.16,-128.39 0.06,-127.90 54.72 80
2 03/09/2021 18:30:26 0.15,-128.41 -0.59,-124.95 393.34 80
3 03/10/2021 06:54:30 -0.15,-128.33 -0.51,-130.14 205.81 80
4 03/12/2021 06:39:37 -0.15,-128.35 0.09,-127.18 132.85 80
5 03/12/2021 19:00:53 0.16,-128.44 0.96,-132.35 443.56 80
6 03/14/2021 06:27:25 -0.15,-128.37 0.75,-124.23 471.50 80
7 03/14/2021 18:48:40 0.16,-128.46 0.36,-129.38 104.89 80
8 03/16/2021 18:39:08 0.15,-128.48 -0.31,-126.43 233.41 80
9 03/17/2021 07:00:31 -0.16,-128.40 -0.85,-131.61 365.47 80
10 03/19/2021 06:48:19 -0.15,-128.41 -0.18,-128.66 28.17 80
